2024-04-25T00:00:00,mnr,9.71
2024-04-25T00:01:00,mnr,9.77
2024-04-25T00:02:00,mnr,9.79
2024-04-25T00:03:00,mnr,9.88
2024-04-25T00:04:00,mnr,9.66
2024-04-25T00:05:00,mnr,9.78
2024-04-25T00:06:00,mnr,10.60
2024-04-25T00:07:00,mnr,9.95
2024-04-25T00:08:00,mnr,10.41
2024-04-25T00:09:00,mnr,9.18
2024-04-25T00:10:00,mnr,9.14
2024-04-25T00:11:00,mnr,8.84
2024-04-25T00:12:00,mnr,8.36
2024-04-25T00:13:00,mnr,8.28
2024-04-25T00:14:00,mnr,8.33
2024-04-25T00:15:00,mnr,8.23
2024-04-25T00:16:00,mnr,8.28
2024-04-25T00:17:00,mnr,8.40
2024-04-25T00:18:00,mnr,8.83
2024-04-25T00:19:00,mnr,8.31
2024-04-25T00:20:00,mnr,8.37
2024-04-25T00:21:00,mnr,8.28
2024-04-25T00:22:00,mnr,8.79
2024-04-25T00:23:00,mnr,8.14
2024-04-25T00:24:00,mnr,8.15
2024-04-25T00:25:00,mnr,7.59
2024-04-25T00:26:00,mnr,7.72
2024-04-25T00:27:00,mnr,7.92
2024-04-25T00:28:00,mnr,7.47
2024-04-25T00:29:00,mnr,7.68
2024-04-25T00:30:00,mnr,7.71
2024-04-25T00:31:00,mnr,7.65
2024-04-25T00:32:00,mnr,8.15
2024-04-25T00:33:00,mnr,7.18
2024-04-25T00:34:00,mnr,7.19
2024-04-25T00:35:00,mnr,7.78
2024-04-25T00:36:00,mnr,7.18
2024-04-25T00:37:00,mnr,7.05
2024-04-25T00:38:00,mnr,7.98
2024-04-25T00:39:00,mnr,7.74
2024-04-25T00:40:00,mnr,7.71
2024-04-25T00:41:00,mnr,8.83
2024-04-25T00:42:00,mnr,7.84
2024-04-25T00:43:00,mnr,7.30
2024-04-25T00:44:00,mnr,7.53
2024-04-25T00:45:00,mnr,7.60
2024-04-25T00:46:00,mnr,7.74
2024-04-25T00:47:00,mnr,7.86
2024-04-25T00:48:00,mnr,7.79
2024-04-25T00:49:00,mnr,7.67
2024-04-25T00:50:00,mnr,7.89
2024-04-25T00:51:00,mnr,8.22
2024-04-25T00:52:00,mnr,8.20
2024-04-25T00:53:00,mnr,8.41
2024-04-25T00:54:00,mnr,8.28
2024-04-25T00:55:00,mnr,8.25
2024-04-25T00:56:00,mnr,8.30
2024-04-25T00:57:00,mnr,8.19
2024-04-25T00:58:00,mnr,8.10
2024-04-25T00:59:00,mnr,8.30
2024-04-25T01:00:00,mnr,8.13
2024-04-25T01:01:00,mnr,7.96
2024-04-25T01:02:00,mnr,7.90
2024-04-25T01:03:00,mnr,7.44
2024-04-25T01:04:00,mnr,7.49
2024-04-25T01:05:00,mnr,7.45
2024-04-25T01:06:00,mnr,7.50
2024-04-25T01:07:00,mnr,7.99
2024-04-25T01:08:00,mnr,8.08
2024-04-25T01:09:00,mnr,8.30
2024-04-25T01:10:00,mnr,8.00
2024-04-25T01:11:00,mnr,8.16
2024-04-25T01:12:00,mnr,7.51
2024-04-25T01:13:00,mnr,7.51
2024-04-25T01:14:00,mnr,7.55
2024-04-25T01:15:00,mnr,7.77
2024-04-25T01:16:00,mnr,7.42
2024-04-25T01:17:00,mnr,8.10
2024-04-25T01:18:00,mnr,7.43
2024-04-25T01:19:00,mnr,7.62
2024-04-25T01:20:00,mnr,7.45
2024-04-25T01:21:00,mnr,7.34
2024-04-25T01:22:00,mnr,7.10
2024-04-25T01:23:00,mnr,7.10
2024-04-25T01:24:00,mnr,6.69
2024-04-25T01:25:00,mnr,6.66
2024-04-25T01:26:00,mnr,6.89
2024-04-25T01:27:00,mnr,7.41
2024-04-25T01:28:00,mnr,7.46
2024-04-25T01:29:00,mnr,7.95
2024-04-25T01:30:00,mnr,7.38
2024-04-25T01:31:00,mnr,7.55
2024-04-25T01:32:00,mnr,7.25
2024-04-25T01:33:00,mnr,7.33
2024-04-25T01:34:00,mnr,7.48
2024-04-25T01:35:00,mnr,7.75
2024-04-25T01:36:00,mnr,8.48
2024-04-25T01:37:00,mnr,7.53
2024-04-25T01:38:00,mnr,7.89
2024-04-25T01:39:00,mnr,8.86
2024-04-25T01:40:00,mnr,8.83
2024-04-25T01:41:00,mnr,8.51
2024-04-25T01:42:00,mnr,8.96
2024-04-25T01:43:00,mnr,8.66
2024-04-25T01:44:00,mnr,7.73
2024-04-25T01:45:00,mnr,7.74
2024-04-25T01:46:00,mnr,7.72
2024-04-25T01:47:00,mnr,7.62
2024-04-25T01:48:00,mnr,7.55
2024-04-25T01:49:00,mnr,7.84
2024-04-25T01:50:00,mnr,7.63
2024-04-25T01:51:00,mnr,7.65
2024-04-25T01:52:00,mnr,7.31
2024-04-25T01:53:00,mnr,7.23
2024-04-25T01:54:00,mnr,7.22
2024-04-25T01:55:00,mnr,8.02
2024-04-25T01:56:00,mnr,7.92
2024-04-25T01:57:00,mnr,7.86
2024-04-25T01:58:00,mnr,7.92
2024-04-25T01:59:00,mnr,8.09
2024-04-25T02:00:00,mnr,8.07
2024-04-25T02:01:00,mnr,7.59
2024-04-25T02:02:00,mnr,8.63
2024-04-25T02:03:00,mnr,7.69
2024-04-25T02:04:00,mnr,7.77
2024-04-25T02:05:00,mnr,7.40
2024-04-25T02:06:00,mnr,7.44
2024-04-25T02:07:00,mnr,7.35
2024-04-25T02:08:00,mnr,6.40
2024-04-25T02:09:00,mnr,6.28
2024-04-25T02:10:00,mnr,6.86
2024-04-25T02:11:00,mnr,6.97
2024-04-25T02:12:00,mnr,6.97
2024-04-25T02:13:00,mnr,6.97
2024-04-25T02:14:00,mnr,7.49
2024-04-25T02:15:00,mnr,7.01
2024-04-25T02:16:00,mnr,7.55
2024-04-25T02:17:00,mnr,6.99
2024-04-25T02:18:00,mnr,6.65
2024-04-25T02:19:00,mnr,6.09
2024-04-25T02:20:00,mnr,7.20
2024-04-25T02:21:00,mnr,3.77
2024-04-25T02:22:00,mnr,6.46
2024-04-25T02:23:00,mnr,7.42
2024-04-25T02:24:00,mnr,7.26
2024-04-25T02:25:00,mnr,7.28
2024-04-25T02:26:00,mnr,7.92
2024-04-25T02:27:00,mnr,7.03
2024-04-25T02:28:00,mnr,8.02
2024-04-25T02:29:00,mnr,7.46
2024-04-25T02:30:00,mnr,7.01
2024-04-25T02:31:00,mnr,8.07
2024-04-25T02:32:00,mnr,6.45
2024-04-25T02:33:00,mnr,6.53
2024-04-25T02:34:00,mnr,6.98
2024-04-25T02:35:00,mnr,7.36
2024-04-25T02:36:00,mnr,7.06
2024-04-25T02:37:00,mnr,8.25
2024-04-25T02:38:00,mnr,7.20
2024-04-25T02:39:00,mnr,7.85
2024-04-25T02:40:00,mnr,7.22
2024-04-25T02:41:00,mnr,8.47
2024-04-25T02:42:00,mnr,7.20
2024-04-25T02:43:00,mnr,7.13
2024-04-25T02:44:00,mnr,7.20
2024-04-25T02:45:00,mnr,7.14
2024-04-25T02:46:00,mnr,6.56
2024-04-25T02:47:00,mnr,6.61
2024-04-25T02:48:00,mnr,7.10
2024-04-25T02:49:00,mnr,6.99
2024-04-25T02:50:00,mnr,6.57
2024-04-25T02:51:00,mnr,6.51
2024-04-25T02:52:00,mnr,7.42
2024-04-25T02:53:00,mnr,6.51
2024-04-25T02:54:00,mnr,6.49
2024-04-25T02:55:00,mnr,6.48
2024-04-25T02:56:00,mnr,6.48
2024-04-25T02:57:00,mnr,6.27
2024-04-25T02:58:00,mnr,6.32
2024-04-25T02:59:00,mnr,6.33
2024-04-25T03:00:00,mnr,6.31
2024-04-25T03:01:00,mnr,5.67
2024-04-25T03:02:00,mnr,5.67
2024-04-25T03:03:00,mnr,5.57
2024-04-25T03:04:00,mnr,5.60
2024-04-25T03:05:00,mnr,5.59
2024-04-25T03:06:00,mnr,5.60
2024-04-25T03:07:00,mnr,5.55
2024-04-25T03:08:00,mnr,5.14
2024-04-25T03:09:00,mnr,5.09
2024-04-25T03:10:00,mnr,5.12
2024-04-25T03:11:00,mnr,5.80
2024-04-25T03:12:00,mnr,5.77
2024-04-25T03:13:00,mnr,5.16
2024-04-25T03:14:00,mnr,5.60
2024-04-25T03:15:00,mnr,5.14
2024-04-25T03:16:00,mnr,5.11
2024-04-25T03:17:00,mnr,5.17
2024-04-25T03:18:00,mnr,5.11
2024-04-25T03:19:00,mnr,5.19
2024-04-25T03:20:00,mnr,5.12
2024-04-25T03:21:00,mnr,5.38
2024-04-25T03:22:00,mnr,5.25
2024-04-25T03:23:00,mnr,5.15
2024-04-25T03:24:00,mnr,5.14
2024-04-25T03:25:00,mnr,5.12
2024-04-25T03:26:00,mnr,5.12
2024-04-25T03:27:00,mnr,5.16
2024-04-25T03:28:00,mnr,4.49
2024-04-25T03:29:00,mnr,4.52
2024-04-25T03:30:00,mnr,4.49
2024-04-25T03:31:00,mnr,4.79
2024-04-25T03:32:00,mnr,4.51
2024-04-25T03:33:00,mnr,4.49
2024-04-25T03:34:00,mnr,4.66
2024-04-25T03:35:00,mnr,4.46
2024-04-25T03:36:00,mnr,4.95
2024-04-25T03:37:00,mnr,4.30
2024-04-25T03:38:00,mnr,4.33
2024-04-25T03:39:00,mnr,4.40
2024-04-25T03:40:00,mnr,5.15
2024-04-25T03:41:00,mnr,4.26
2024-04-25T03:42:00,mnr,4.30
2024-04-25T03:43:00,mnr,4.29
2024-04-25T03:44:00,mnr,4.28
2024-04-25T03:45:00,mnr,4.19
2024-04-25T03:46:00,mnr,4.17
2024-04-25T03:47:00,mnr,4.20
2024-04-25T03:48:00,mnr,4.66
2024-04-25T03:49:00,mnr,5.34
2024-04-25T03:50:00,mnr,4.73
2024-04-25T03:51:00,mnr,4.85
2024-04-25T03:52:00,mnr,4.83
2024-04-25T03:53:00,mnr,5.01
2024-04-25T03:54:00,mnr,4.89
2024-04-25T03:55:00,mnr,4.92
2024-04-25T03:56:00,mnr,5.29
2024-04-25T03:57:00,mnr,4.84
2024-04-25T03:58:00,mnr,4.97
2024-04-25T03:59:00,mnr,4.96
2024-04-25T04:00:00,mnr,4.92
2024-04-25T04:01:00,mnr,4.94
2024-04-25T04:02:00,mnr,4.93
2024-04-25T04:03:00,mnr,4.86
2024-04-25T04:04:00,mnr,5.51
2024-04-25T04:05:00,mnr,4.97
2024-04-25T04:06:00,mnr,5.04
2024-04-25T04:07:00,mnr,4.90
2024-04-25T04:08:00,mnr,4.78
2024-04-25T04:09:00,mnr,4.78
2024-04-25T04:10:00,mnr,4.70
2024-04-25T04:11:00,mnr,4.75
2024-04-25T04:12:00,mnr,4.71
2024-04-25T04:13:00,mnr,4.75
2024-04-25T04:14:00,mnr,4.72
2024-04-25T04:15:00,mnr,5.04
2024-04-25T04:16:00,mnr,4.72
2024-04-25T04:17:00,mnr,4.71
2024-04-25T04:18:00,mnr,4.90
2024-04-25T04:19:00,mnr,4.73
2024-04-25T04:20:00,mnr,4.82
2024-04-25T04:21:00,mnr,4.74
2024-04-25T04:22:00,mnr,4.83
2024-04-25T04:23:00,mnr,4.77
2024-04-25T04:24:00,mnr,4.75
2024-04-25T04:25:00,mnr,4.70
2024-04-25T04:26:00,mnr,5.43
2024-04-25T04:27:00,mnr,4.82
2024-04-25T04:28:00,mnr,4.68
2024-04-25T04:29:00,mnr,4.78
2024-04-25T04:30:00,mnr,4.75
2024-04-25T04:31:00,mnr,4.93
2024-04-25T04:32:00,mnr,5.12
2024-04-25T04:33:00,mnr,4.86
2024-04-25T04:34:00,mnr,4.75
2024-04-25T04:35:00,mnr,4.79
2024-04-25T04:36:00,mnr,4.82
2024-04-25T04:37:00,mnr,4.99
2024-04-25T04:38:00,mnr,4.28
2024-04-25T04:39:00,mnr,4.36
2024-04-25T04:40:00,mnr,4.87
2024-04-25T04:41:00,mnr,4.31
2024-04-25T04:42:00,mnr,4.31
2024-04-25T04:43:00,mnr,4.82
2024-04-25T04:44:00,mnr,4.32
2024-04-25T04:45:00,mnr,4.35
2024-04-25T04:46:00,mnr,4.31
2024-04-25T04:47:00,mnr,4.31
2024-04-25T04:48:00,mnr,4.31
2024-04-25T04:49:00,mnr,4.55
2024-04-25T04:50:00,mnr,4.27
2024-04-25T04:51:00,mnr,5.16
2024-04-25T04:52:00,mnr,4.79
2024-04-25T04:53:00,mnr,4.24
2024-04-25T04:54:00,mnr,4.17
2024-04-25T04:55:00,mnr,4.19
2024-04-25T04:56:00,mnr,4.75
2024-04-25T04:57:00,mnr,4.70
2024-04-25T04:58:00,mnr,4.29
2024-04-25T04:59:00,mnr,4.35
2024-04-25T05:00:00,mnr,4.29
2024-04-25T05:01:00,mnr,4.27
2024-04-25T05:02:00,mnr,4.26
2024-04-25T05:03:00,mnr,4.31
2024-04-25T05:04:00,mnr,4.31
2024-04-25T05:05:00,mnr,4.24
2024-04-25T05:06:00,mnr,4.28
2024-04-25T05:07:00,mnr,4.24
2024-04-25T05:08:00,mnr,4.82
2024-04-25T05:09:00,mnr,4.51
2024-04-25T05:10:00,mnr,4.41
2024-04-25T05:11:00,mnr,4.19
2024-04-25T05:12:00,mnr,4.25
2024-04-25T05:13:00,mnr,4.23
2024-04-25T05:14:00,mnr,4.14
2024-04-25T05:15:00,mnr,4.22
2024-04-25T05:16:00,mnr,4.85
2024-04-25T05:17:00,mnr,4.60
2024-04-25T05:18:00,mnr,4.57
2024-04-25T05:19:00,mnr,4.60
2024-04-25T05:20:00,mnr,4.62
2024-04-25T05:21:00,mnr,4.62
2024-04-25T05:22:00,mnr,4.66
2024-04-25T05:23:00,mnr,4.73
2024-04-25T05:24:00,mnr,4.74
2024-04-25T05:25:00,mnr,5.00
2024-04-25T05:26:00,mnr,5.42
2024-04-25T05:27:00,mnr,4.71
2024-04-25T05:28:00,mnr,4.73
2024-04-25T05:29:00,mnr,4.77
2024-04-25T05:30:00,mnr,4.79
2024-04-25T05:31:00,mnr,4.79
2024-04-25T05:32:00,mnr,4.80
2024-04-25T05:33:00,mnr,4.78
2024-04-25T05:34:00,mnr,5.40
2024-04-25T05:35:00,mnr,4.96
2024-04-25T05:36:00,mnr,5.65
2024-04-25T05:37:00,mnr,5.14
2024-04-25T05:38:00,mnr,5.04
2024-04-25T05:39:00,mnr,6.13
2024-04-25T05:40:00,mnr,4.97
2024-04-25T05:41:00,mnr,5.06
2024-04-25T05:42:00,mnr,4.95
2024-04-25T05:43:00,mnr,5.09
2024-04-25T05:44:00,mnr,4.91
2024-04-25T05:45:00,mnr,5.22
2024-04-25T05:46:00,mnr,4.85
2024-04-25T05:47:00,mnr,4.82
2024-04-25T05:48:00,mnr,4.79
2024-04-25T05:49:00,mnr,4.84
2024-04-25T05:50:00,mnr,4.77
2024-04-25T05:51:00,mnr,4.68
2024-04-25T05:52:00,mnr,5.15
2024-04-25T05:53:00,mnr,4.74
2024-04-25T05:54:00,mnr,4.69
2024-04-25T05:55:00,mnr,4.68
2024-04-25T05:56:00,mnr,4.64
2024-04-25T05:57:00,mnr,4.62
2024-04-25T05:58:00,mnr,4.60
2024-04-25T05:59:00,mnr,4.68
2024-04-25T06:00:00,mnr,4.60
2024-04-25T06:01:00,mnr,4.89
2024-04-25T06:02:00,mnr,7.52
2024-04-25T06:03:00,mnr,8.07
2024-04-25T06:04:00,mnr,9.96
2024-04-25T06:05:00,mnr,11.72
2024-04-25T06:06:00,mnr,13.04
2024-04-25T06:07:00,mnr,14.40
2024-04-25T06:08:00,mnr,12.61
2024-04-25T06:09:00,mnr,12.09
2024-04-25T06:10:00,mnr,11.85
2024-04-25T06:11:00,mnr,12.16
2024-04-25T06:12:00,mnr,11.79
2024-04-25T06:13:00,mnr,11.83
2024-04-25T06:14:00,mnr,11.83
2024-04-25T06:15:00,mnr,11.88
2024-04-25T06:16:00,mnr,11.81
2024-04-25T06:17:00,mnr,11.79
2024-04-25T06:18:00,mnr,12.04
2024-04-25T06:19:00,mnr,11.74
2024-04-25T06:20:00,mnr,11.65
2024-04-25T06:21:00,mnr,11.65
2024-04-25T06:22:00,mnr,11.95
2024-04-25T06:23:00,mnr,11.93
2024-04-25T06:24:00,mnr,12.00
2024-04-25T06:25:00,mnr,11.69
2024-04-25T06:26:00,mnr,12.60
2024-04-25T06:27:00,mnr,13.87
2024-04-25T06:28:00,mnr,12.46
2024-04-25T06:29:00,mnr,13.70
2024-04-25T06:30:00,mnr,12.40
2024-04-25T06:31:00,mnr,12.53
2024-04-25T06:32:00,mnr,12.46
2024-04-25T06:33:00,mnr,13.07
2024-04-25T06:34:00,mnr,13.49
2024-04-25T06:35:00,mnr,12.83
2024-04-25T06:36:00,mnr,14.04
2024-04-25T06:37:00,mnr,12.90
2024-04-25T06:38:00,mnr,12.86
2024-04-25T06:39:00,mnr,13.34
2024-04-25T06:40:00,mnr,13.51
2024-04-25T06:41:00,mnr,13.51
2024-04-25T06:42:00,mnr,14.00
2024-04-25T06:43:00,mnr,14.32
2024-04-25T06:44:00,mnr,13.82
2024-04-25T06:45:00,mnr,14.00
2024-04-25T06:46:00,mnr,14.12
2024-04-25T06:47:00,mnr,14.09
2024-04-25T06:48:00,mnr,14.03
2024-04-25T06:49:00,mnr,14.03
2024-04-25T06:50:00,mnr,13.98
2024-04-25T06:51:00,mnr,14.39
2024-04-25T06:52:00,mnr,10.57
2024-04-25T06:53:00,mnr,24.70
2024-04-25T06:54:00,mnr,14.71
2024-04-25T06:55:00,mnr,12.30
2024-04-25T06:56:00,mnr,13.95
2024-04-25T06:57:00,mnr,14.19
2024-04-25T06:58:00,mnr,13.55
2024-04-25T06:59:00,mnr,13.62
2024-04-25T07:00:00,mnr,15.22
2024-04-25T07:01:00,mnr,15.08
2024-04-25T07:02:00,mnr,15.47
2024-04-25T07:03:00,mnr,15.68
2024-04-25T07:04:00,mnr,14.98
2024-04-25T07:05:00,mnr,13.70
2024-04-25T07:06:00,mnr,14.01
2024-04-25T07:07:00,mnr,13.50
2024-04-25T07:08:00,mnr,13.57
2024-04-25T07:09:00,mnr,13.76
2024-04-25T07:10:00,mnr,13.79
2024-04-25T07:11:00,mnr,13.84
2024-04-25T07:12:00,mnr,13.84
2024-04-25T07:13:00,mnr,13.77
2024-04-25T07:14:00,mnr,14.42
2024-04-25T07:15:00,mnr,13.90
2024-04-25T07:16:00,mnr,13.65
2024-04-25T07:17:00,mnr,14.50
2024-04-25T07:18:00,mnr,13.66
2024-04-25T07:19:00,mnr,13.65
2024-04-25T07:20:00,mnr,14.30
2024-04-25T07:21:00,mnr,13.66
2024-04-25T07:22:00,mnr,14.31
2024-04-25T07:23:00,mnr,12.97
2024-04-25T07:24:00,mnr,13.12
2024-04-25T07:25:00,mnr,13.58
2024-04-25T07:26:00,mnr,12.74
2024-04-25T07:27:00,mnr,12.72
2024-04-25T07:28:00,mnr,13.48
2024-04-25T07:29:00,mnr,13.43
2024-04-25T07:30:00,mnr,13.32
2024-04-25T07:31:00,mnr,13.41
2024-04-25T07:32:00,mnr,22.97
2024-04-25T07:33:00,mnr,14.74
2024-04-25T07:34:00,mnr,14.13
2024-04-25T07:35:00,mnr,13.71
2024-04-25T07:36:00,mnr,13.78
2024-04-25T07:37:00,mnr,14.27
2024-04-25T07:38:00,mnr,15.58
2024-04-25T07:39:00,mnr,15.48
2024-04-25T07:40:00,mnr,14.27
2024-04-25T07:41:00,mnr,14.65
2024-04-25T07:42:00,mnr,14.40
2024-04-25T07:43:00,mnr,14.20
2024-04-25T07:44:00,mnr,14.45
2024-04-25T07:45:00,mnr,15.33
2024-04-25T07:46:00,mnr,14.21
2024-04-25T07:47:00,mnr,14.45
2024-04-25T07:48:00,mnr,15.38
2024-04-25T07:49:00,mnr,14.03
2024-04-25T07:50:00,mnr,14.12
2024-04-25T07:51:00,mnr,14.12
2024-04-25T07:52:00,mnr,14.07
2024-04-25T07:53:00,mnr,14.49
2024-04-25T07:54:00,mnr,11.04
2024-04-25T07:55:00,mnr,14.07
2024-04-25T07:56:00,mnr,14.21
2024-04-25T07:57:00,mnr,13.73
2024-04-25T07:58:00,mnr,13.96
2024-04-25T07:59:00,mnr,13.83
2024-04-25T08:00:00,mnr,13.79
2024-04-25T08:01:00,mnr,13.75
2024-04-25T08:02:00,mnr,13.66
2024-04-25T08:03:00,mnr,13.67
2024-04-25T08:04:00,mnr,13.73
2024-04-25T08:05:00,mnr,12.75
2024-04-25T08:06:00,mnr,13.54
2024-04-25T08:07:00,mnr,14.13
2024-04-25T08:08:00,mnr,13.74
2024-04-25T08:09:00,mnr,14.74
2024-04-25T08:10:00,mnr,14.34
2024-04-25T08:11:00,mnr,14.10
2024-04-25T08:12:00,mnr,14.15
2024-04-25T08:13:00,mnr,14.13
2024-04-25T08:14:00,mnr,14.18
2024-04-25T08:15:00,mnr,24.91
2024-04-25T08:16:00,mnr,14.83
2024-04-25T08:17:00,mnr,14.48
2024-04-25T08:18:00,mnr,14.43
2024-04-25T08:19:00,mnr,14.52
2024-04-25T08:20:00,mnr,14.94
2024-04-25T08:21:00,mnr,14.39
2024-04-25T08:22:00,mnr,14.30
2024-04-25T08:23:00,mnr,12.34
2024-04-25T08:24:00,mnr,15.15
2024-04-25T08:25:00,mnr,14.57
2024-04-25T08:26:00,mnr,16.56
2024-04-25T08:27:00,mnr,14.98
2024-04-25T08:28:00,mnr,14.45
2024-04-25T08:29:00,mnr,14.26
2024-04-25T08:30:00,mnr,14.28
2024-04-25T08:31:00,mnr,12.62
2024-04-25T08:32:00,mnr,14.78
2024-04-25T08:33:00,mnr,17.28
2024-04-25T08:34:00,mnr,16.78
2024-04-25T08:35:00,mnr,16.33
2024-04-25T08:36:00,mnr,17.70
2024-04-25T08:37:00,mnr,17.85
2024-04-25T08:38:00,mnr,17.90
2024-04-25T08:39:00,mnr,16.93
2024-04-25T08:40:00,mnr,16.79
2024-04-25T08:41:00,mnr,17.98
2024-04-25T08:42:00,mnr,17.75
2024-04-25T08:43:00,mnr,17.29
2024-04-25T08:44:00,mnr,17.07
2024-04-25T08:45:00,mnr,17.04
2024-04-25T08:46:00,mnr,17.03
2024-04-25T08:47:00,mnr,16.99
2024-04-25T08:48:00,mnr,17.02
2024-04-25T08:49:00,mnr,17.13
2024-04-25T08:50:00,mnr,16.98
2024-04-25T08:51:00,mnr,17.09
2024-04-25T08:52:00,mnr,17.02
2024-04-25T08:53:00,mnr,17.01
2024-04-25T08:54:00,mnr,16.94
2024-04-25T08:55:00,mnr,17.36
2024-04-25T08:56:00,mnr,16.89
2024-04-25T08:57:00,mnr,17.07
2024-04-25T08:58:00,mnr,18.43
2024-04-25T08:59:00,mnr,17.06
2024-04-25T09:00:00,mnr,17.03
2024-04-25T09:01:00,mnr,17.02
2024-04-25T09:02:00,mnr,17.36
2024-04-25T09:03:00,mnr,17.68
2024-04-25T09:04:00,mnr,17.55
2024-04-25T09:05:00,mnr,17.42
2024-04-25T09:06:00,mnr,17.65
2024-04-25T09:07:00,mnr,17.53
2024-04-25T09:08:00,mnr,17.55
2024-04-25T09:09:00,mnr,17.77
2024-04-25T09:10:00,mnr,17.62
2024-04-25T09:11:00,mnr,17.60
2024-04-25T09:12:00,mnr,17.64
2024-04-25T09:13:00,mnr,18.86
2024-04-25T09:14:00,mnr,17.80
2024-04-25T09:15:00,mnr,18.49
2024-04-25T09:16:00,mnr,17.82
2024-04-25T09:17:00,mnr,18.14
2024-04-25T09:18:00,mnr,18.74
2024-04-25T09:19:00,mnr,18.52
2024-04-25T09:20:00,mnr,17.74
2024-04-25T09:21:00,mnr,18.74
2024-04-25T09:22:00,mnr,18.03
2024-04-25T09:23:00,mnr,17.86
2024-04-25T09:24:00,mnr,18.78
2024-04-25T09:25:00,mnr,18.45
2024-04-25T09:26:00,mnr,17.96
2024-04-25T09:27:00,mnr,18.26
2024-04-25T09:28:00,mnr,18.05
2024-04-25T09:29:00,mnr,17.86
2024-04-25T09:30:00,mnr,18.83
2024-04-25T09:31:00,mnr,17.78
2024-04-25T09:32:00,mnr,17.68
2024-04-25T09:33:00,mnr,18.45
2024-04-25T09:34:00,mnr,17.79
2024-04-25T09:35:00,mnr,18.83
2024-04-25T09:36:00,mnr,29.17
2024-04-25T09:37:00,mnr,17.78
2024-04-25T09:38:00,mnr,17.66
2024-04-25T09:39:00,mnr,17.76
2024-04-25T09:40:00,mnr,17.51
2024-04-25T09:41:00,mnr,18.24
2024-04-25T09:42:00,mnr,17.95
2024-04-25T09:43:00,mnr,21.16
2024-04-25T09:44:00,mnr,18.58
2024-04-25T09:45:00,mnr,20.43
2024-04-25T09:46:00,mnr,17.49
2024-04-25T09:47:00,mnr,19.13
2024-04-25T09:48:00,mnr,19.00
2024-04-25T09:49:00,mnr,20.30
2024-04-25T09:50:00,mnr,20.49
2024-04-25T09:51:00,mnr,18.96
2024-04-25T09:52:00,mnr,19.47
2024-04-25T09:53:00,mnr,18.98
2024-04-25T09:54:00,mnr,19.63
2024-04-25T09:55:00,mnr,19.04
2024-04-25T09:56:00,mnr,18.92
2024-04-25T09:57:00,mnr,19.26
2024-04-25T09:58:00,mnr,19.38
2024-04-25T09:59:00,mnr,19.80
2024-04-25T10:00:00,mnr,19.76
2024-04-25T10:01:00,mnr,19.70
2024-04-25T10:02:00,mnr,19.41
2024-04-25T10:03:00,mnr,20.39
2024-04-25T10:04:00,mnr,19.39
2024-04-25T10:05:00,mnr,19.48
2024-04-25T10:06:00,mnr,19.58
2024-04-25T10:07:00,mnr,20.23
2024-04-25T10:08:00,mnr,19.63
2024-04-25T10:09:00,mnr,19.52
2024-04-25T10:10:00,mnr,19.50
2024-04-25T10:11:00,mnr,19.64
2024-04-25T10:12:00,mnr,20.57
2024-04-25T10:13:00,mnr,19.64
2024-04-25T10:14:00,mnr,19.30
2024-04-25T10:15:00,mnr,19.19
2024-04-25T10:16:00,mnr,19.16
2024-04-25T10:17:00,mnr,19.10
2024-04-25T10:18:00,mnr,19.10
2024-04-25T10:19:00,mnr,19.14
2024-04-25T10:20:00,mnr,19.10
2024-04-25T10:21:00,mnr,19.40
2024-04-25T10:22:00,mnr,19.48
2024-04-25T10:23:00,mnr,19.25
2024-04-25T10:24:00,mnr,19.44
2024-04-25T10:25:00,mnr,19.13
2024-04-25T10:26:00,mnr,19.47
2024-04-25T10:27:00,mnr,19.25
2024-04-25T10:28:00,mnr,19.32
2024-04-25T10:29:00,mnr,19.30
2024-04-25T10:30:00,mnr,19.62
2024-04-25T10:31:00,mnr,19.68
2024-04-25T10:32:00,mnr,21.69
2024-04-25T10:33:00,mnr,19.36
2024-04-25T10:34:00,mnr,19.52
2024-04-25T10:35:00,mnr,19.45
2024-04-25T10:36:00,mnr,19.32
2024-04-25T10:37:00,mnr,19.31
2024-04-25T10:38:00,mnr,19.30
2024-04-25T10:39:00,mnr,21.88
2024-04-25T10:40:00,mnr,21.12
2024-04-25T10:41:00,mnr,20.70
2024-04-25T10:42:00,mnr,20.98
2024-04-25T10:43:00,mnr,20.35
2024-04-25T10:44:00,mnr,20.27
2024-04-25T10:45:00,mnr,21.61
2024-04-25T10:46:00,mnr,20.20
